Regional Weather Roundup
Issued by NWS

Home | Current Version | Previous Version | Graphics & Text | Print | Product List | Glossary On
Versions: 1 2 3 4 5 6 7 8 9 10 11 12 13 14 15 16 17 18 19 20 21 22 23 24 25 26 27 28 29 30 31 32 33 34 35 36 37 38 39 40 41 42 43 44 45 46 47 48 49 50
000
ASUS45 KABQ 212310
RWRNM
WEATHER ROUNDUP FOR NEW MEXICO
NATIONAL WEATHER SERVICE ALBUQUERQUE NM
500 PM MDT MON JUL 21 2014

NOTE: "FAIR" MEANS FEW OR NO CLOUDS BELOW 12,000 FEET AGL WITH NO
       SIGNIFICANT WEATHER OR OBSTRUCTIONS TO VISION.

      THIS PRODUCT IS RELEASED AS TWO VERSIONS.  ONE VERSION NEAR
      THE TOP OF THE HOUR CONTAINING PRELIMINARY DATA FROM ALBUQUERQUE
      AND OTHER STATIONS.  A FINAL VERSION WITH ADDITIONAL DATA IS
      ISSUED ABOUT 10 MINUTES AFTER THE HOUR.

NMZ501-503-504-510>518-220000-
NORTHWEST PLATEAU/NORTHCENTRAL MOUNTAINS

CITY           SKY/WX    TMP DP  RH WIND       PRES   REMARKS
FARMINGTON     SUNNY     91  32  12 SW6       30.17F
LOS ALAMOS     PTSUNNY   80  41  24 NW13      30.33S
SANTA FE       CLOUDY    91  45  20 NE10      30.22F
TAOS           PTSUNNY   82  37  20 N9        30.31S
ANGEL FIRE     MOCLDY    67  49  52 N17       30.47R

$$
NMZ402-403-502-505>509-220000-
WESTCENTRAL MOUNTAINS/SOUTHWEST MOUNTAINS

CITY           SKY/WX    TMP DP  RH WIND       PRES   REMARKS
GALLUP         SUNNY     90  35  14 W10       30.27F
GRANTS         PTSUNNY   86  35  16 N6        30.29S
SILVER CITY    PTSUNNY   88  41  19 SW9       30.20F

$$
NMZ407-409-411-412-220000-
SOUTHERN DESERTS

CITY           SKY/WX    TMP DP  RH WIND       PRES   REMARKS
LORDSBURG      FAIR      93  45  18 CALM      30.10S
DEMING         PTSUNNY   93  47  20 W13G20    30.09S
LAS CRUCES     MOSUNNY   95  40  15 SW3       30.08S
HOLLOMAN AFB   MOSUNNY   94  53  24 N10       30.04S
ALAMOGORDO     MOSUNNY   95  46  18 CALM      30.05F
T OR C         PTSUNNY   95  43  16 W10       30.11S

$$
NMZ519>523-220000-
CENTRAL VALLEYS/CENTRAL HIGHLANDS

CITY           SKY/WX    TMP DP  RH WIND       PRES   REMARKS
ALBUQUERQUE    MOSUNNY   93  43  17 S5        30.15F
DOUBLE EAGLE   MOSUNNY   91  43  18 NW7       30.20F
MORIARTY ARPT  FAIR      87  39  18 S8        30.23F
CLINES CORNERS LGT RAIN  82  47  29 W16G26    30.29S
BELEN          FAIR      94  41  16 W3        30.14S
SOCORRO        FAIR      97  39  13 W18       30.11S

$$
NMZ524>526-539-540-220000-
SOUTHCENTRAL MOUNTAINS

CITY           SKY/WX    TMP DP  RH WIND       PRES   REMARKS
RUIDOSO        PTSUNNY   82  46  28 MISG      30.33F

$$
NMZ527>531-220000-
NORTHEAST HIGHLANDS/NORTHEAST PLAINS

CITY           SKY/WX    TMP DP  RH WIND       PRES   REMARKS
LAS VEGAS      PTSUNNY   79  53  40 N15       30.29R
RATON          CLOUDY    81  50  33 N17G25    30.29R
CLAYTON        LGT RAIN  83  50  31 NW22G29   30.14R

$$
NMZ532>537-220000-
EASTCENTRAL PLAINS

CITY           SKY/WX    TMP DP  RH WIND       PRES   REMARKS
TUCUMCARI      PTSUNNY  102  49  16 S12G24    30.02R HX  99
CANNON AFB     SUNNY     95  62  33 S16G23    30.08S HX  95
CLOVIS AIRPORT NOT AVBL

$$
NMZ028-029-538-220000-
SOUTHEAST PLAINS

CITY           SKY/WX    TMP DP  RH WIND       PRES   REMARKS
ROSWELL        SUNNY    100  52  19 S8        30.00F HX  97
ARTESIA        SUNNY    100  48  17 E6        30.00S HX  97
CARLSBAD       PTSUNNY  103  47  15 SE9       29.96F HX  99
HOBBS          PTSUNNY   95  55  26 SE12      30.05R


$$



USA.gov is the U.S. government's official web portal to all federal, state and local government web resources and services.